Firenze / Peretola, Italy

6:12 AM CET on February 20, 2017 (GMT +0100)
Peretola

Weather History for LIRQ - November, 2012

Change the Weather History Date:

Saturday, November 24, 2012

  Actual Average Record
Temperature  
Mean Temperature 54 °F -  
Max Temperature 62 °F 53 °F 66 °F (2003)
Min Temperature 46 °F 37 °F 28 °F (2001)
Degree Days  
Heating Degree Days 11    
Growing Degree Days 4 (Base 50)    
Moisture  
Dew Point 49 °F    
Average Humidity 90    
Maximum Humidity 100    
Minimum Humidity 72    
Precipitation  
Precipitation 0.00 in 0.12 in - ()
Sea Level Pressure  
Sea Level Pressure 30.24 in    
Wind  
Wind Speed 1 mph ()    
Max Wind Speed 4 mph    
Max Gust Speed -    
Visibility 3.6 miles    
Events Fog    
Averages and records for this station are not official NWS values.
T = Trace of Precipitation, MM = Missing Value Source: Averaged Metar Reports

Daily Weather History Graph

Daily Weather History Graph

Search for Another Location

Airport or City:

Trip Planner

Search our weather history database for the weather conditions in past years. The results will help you decide how hot, cold, wet, or windy it might be!

Date:

Astronomy

Nov. 24, 2012 Rise Set
Actual Time 7:21 AM CET 4:42 PM CET
Civil Twilight 6:49 AM CET 5:14 PM CET
Nautical Twilight 6:14 AM CET 5:49 PM CET
Astronomical Twilight 5:39 AM CET 6:23 PM CET
Moon 2:23 PM CET (11/24) 3:15 AM CET (11/24)
Length of Visible Light 10h 24m
Length of Day
9h 20m
Waxing Gibbous, 85% of the Moon is Illuminated
Nov 24
Waxing Gibbous
Nov 28
Full
Dec 6
Last Quarter
Dec 13
New
Dec 20
First Quarter

Hourly Weather History & Observations

Time (CET) Temp. Windchill Dew Point Humidity Pressure Visibility Wind Dir Wind Speed Gust Speed Precip Events Conditions
12:20 AM 48.2 °F - 48.2 °F 100% 30.24 in 2.5 mi Calm Calm - N/A Fog Shallow Fog
12:50 AM 48.2 °F - 46.4 °F 93% 30.24 in 2.5 mi Calm Calm - N/A Fog Fog
1:20 AM 46.4 °F - 46.4 °F 100% 30.24 in 2.2 mi Calm Calm - N/A Fog Shallow Fog
1:50 AM 48.2 °F - 46.4 °F 93% 30.24 in 2.2 mi Calm Calm - N/A Fog Fog
2:20 AM 46.4 °F - 46.4 °F 100% 30.24 in 2.2 mi Variable 1.2 mph - N/A Fog Fog
2:50 AM 46.4 °F - 46.4 °F 100% 30.24 in 2.8 mi Calm Calm - N/A Fog Shallow Fog
3:20 AM 46.4 °F 45.2 °F 46.4 °F 100% 30.24 in 1.6 mi WNW 3.5 mph - N/A Fog Patches of Fog
3:50 AM 46.4 °F - 46.4 °F 100% 30.24 in 2.5 mi WNW 2.3 mph - N/A   Mostly Cloudy
4:20 AM 48.2 °F - 48.2 °F 100% 30.24 in 2.2 mi Calm Calm - N/A   Mostly Cloudy
4:50 AM 48.2 °F - 46.4 °F 93% 30.24 in 2.2 mi Calm Calm - N/A Fog Shallow Fog
5:20 AM 48.2 °F - 46.4 °F 93% 30.24 in 2.2 mi Calm Calm - N/A Fog Fog
5:50 AM 46.4 °F - 44.6 °F 93% 30.24 in 2.2 mi Calm Calm - N/A Fog Shallow Fog
6:20 AM 46.4 °F - 44.6 °F 93% 30.24 in 2.5 mi Calm Calm - N/A Fog Shallow Fog
6:50 AM 46.4 °F - 46.4 °F 100% 30.24 in 2.5 mi Calm Calm - N/A   Mostly Cloudy
7:20 AM 46.4 °F - 46.4 °F 100% 30.24 in 2.5 mi Calm Calm - N/A Fog Shallow Fog
7:50 AM 46.4 °F - 46.4 °F 100% 30.24 in 2.5 mi NNW 2.3 mph - N/A   Mostly Cloudy
8:20 AM 48.2 °F - 48.2 °F 100% 30.27 in 2.5 mi NW 1.2 mph - N/A   Mostly Cloudy
8:50 AM 50.0 °F - 48.2 °F 94% 30.27 in 3.1 mi Calm Calm - N/A   Mostly Cloudy
9:20 AM 50.0 °F - 50.0 °F 100% 30.27 in 3.7 mi Variable 2.3 mph - N/A   Mostly Cloudy
9:50 AM 50.0 °F - 50.0 °F 100% 30.27 in 3.7 mi Variable 1.2 mph - N/A   Mostly Cloudy
10:20 AM 51.8 °F - 50.0 °F 94% 30.27 in 3.7 mi Calm Calm - N/A   Mostly Cloudy
10:50 AM 53.6 °F - 51.8 °F 94% 30.27 in 4.3 mi Calm Calm - N/A   Scattered Clouds
11:20 AM 55.4 °F - 51.8 °F 88% 30.27 in 4.3 mi Variable 2.3 mph - N/A   Scattered Clouds
11:50 AM 57.2 °F - 51.8 °F 82% 30.24 in 4.3 mi Variable 2.3 mph - N/A   Scattered Clouds
12:20 PM 57.2 °F - 51.8 °F 82% 30.24 in 5.0 mi Variable 2.3 mph - N/A   Partly Cloudy
12:50 PM 59.0 °F - 51.8 °F 77% 30.24 in 5.0 mi Variable 2.3 mph - N/A   Unknown
1:20 PM 59.0 °F - 51.8 °F 77% 30.24 in 6.2 mi Variable 2.3 mph - N/A   Partly Cloudy
1:50 PM 60.8 °F - 51.8 °F 72% 30.21 in - Variable 2.3 mph - N/A   Clear
2:20 PM 60.8 °F - 51.8 °F 72% 30.21 in 5.6 mi Variable 1.2 mph - N/A   Unknown
2:50 PM 62.6 °F - 53.6 °F 72% 30.21 in 5.6 mi Calm Calm - N/A   Unknown
3:20 PM 60.8 °F - 51.8 °F 72% 30.21 in 5.6 mi Calm Calm - N/A   Unknown
3:50 PM 60.8 °F - 51.8 °F 72% 30.21 in 5.6 mi Calm Calm - N/A   Unknown
4:20 PM 57.2 °F - 50.0 °F 77% 30.21 in 5.6 mi Variable 2.3 mph - N/A   Unknown
4:50 PM 55.4 °F - 50.0 °F 82% 30.21 in 5.0 mi SE 3.5 mph - N/A   Unknown
5:20 PM 53.6 °F - 50.0 °F 88% 30.21 in 5.0 mi Variable 2.3 mph - N/A   Unknown
5:50 PM 53.6 °F - 50.0 °F 88% 30.21 in 5.0 mi Variable 2.3 mph - N/A   Unknown
6:20 PM 51.8 °F - 48.2 °F 88% 30.21 in 5.0 mi East 3.5 mph - N/A   Unknown
6:50 PM 51.8 °F - 48.2 °F 88% 30.24 in 5.0 mi Variable 1.2 mph - N/A   Unknown
7:20 PM 50.0 °F - 46.4 °F 87% 30.24 in 4.3 mi Variable 1.2 mph - N/A   Unknown
7:50 PM 50.0 °F - 46.4 °F 87% 30.24 in 4.3 mi Variable 1.2 mph - N/A   Unknown
8:20 PM 48.2 °F - 46.4 °F 93% 30.24 in 3.7 mi ESE 2.3 mph - N/A   Scattered Clouds
8:50 PM 50.0 °F - 48.2 °F 94% 30.24 in 3.1 mi Calm Calm - N/A   Scattered Clouds
9:20 PM 50.0 °F - 48.2 °F 94% 30.24 in 3.1 mi SSE 3.5 mph - N/A   Mostly Cloudy
9:50 PM 50.0 °F - 48.2 °F 94% 30.24 in 3.1 mi Calm Calm - N/A   Mostly Cloudy
10:20 PM 50.0 °F - 48.2 °F 94% 30.24 in 3.1 mi Calm Calm - N/A   Mostly Cloudy
10:50 PM 50.0 °F - 48.2 °F 94% 30.24 in 3.1 mi Calm Calm - N/A   Scattered Clouds
11:20 PM 50.0 °F - 48.2 °F 94% 30.24 in 3.1 mi SSW 2.3 mph - N/A   Mostly Cloudy
11:50 PM 50.0 °F - 48.2 °F 94% 30.24 in 3.1 mi SE 2.3 mph - N/A   Mostly Cloudy